| time (UTC) | temp F | wind direction | speed knots | gust knots | rain 1hr in | rain 24hr in | rain mn in | humidity % | barometer mb |
| 20260507130532 | 46 | 267 | 2.6 | 7.0 | 0.00 | 0.60 | 0.00 | 86 | 1006.9 |
| 20260507130048 | 46 | 310 | 1.7 | 8.7 | 0.00 | 0.60 | 0.00 | 86 | 1007.0 |
| 20260507125528 | 45 | 265 | 2.6 | 8.7 | 0.00 | 0.60 | 0.00 | 87 | 1006.9 |
| 20260507125031 | 46 | 261 | 2.6 | 6.1 | 0.00 | 0.60 | 0.00 | 87 | 1007.0 |
| 20260507124535 | 45 | 241 | 1.7 | 6.1 | 0.00 | 0.60 | 0.00 | 90 | 1007.0 |
| 20260507124028 | 44 | 292 | 3.5 | 6.1 | 0.00 | 0.60 | 0.00 | 87 | 1007.0 |
| 20260507123536 | 44 | 266 | 1.7 | 7.0 | 0.00 | 0.60 | 0.00 | 89 | 1007.0 |
| 20260507123047 | 44 | 251 | 3.5 | 7.0 | 0.00 | 0.60 | 0.00 | 87 | 1006.9 |
| 20260507122527 | 44 | 236 | 2.6 | 7.0 | 0.00 | 0.60 | 0.00 | 88 | 1006.9 |
| 20260507122029 | 44 | 254 | 3.5 | 7.8 | 0.00 | 0.60 | 0.00 | 87 | 1006.9 |
| 20260507121542 | 44 | 234 | 2.6 | 7.8 | 0.00 | 0.60 | 0.00 | 89 | 1006.8 |
| 20260507121030 | 44 | 252 | 2.6 | 7.8 | 0.00 | 0.60 | 0.00 | 89 | 1006.8 |
| 20260507120529 | 43 | 258 | 2.6 | 7.8 | 0.00 | 0.60 | 0.00 | 91 | 1006.7 |
| 20260507120039 | 43 | 250 | 1.7 | 6.1 | 0.00 | 0.60 | 0.00 | 93 | 1006.7 |
| 20260507115550 | 42 | 329 | 1.7 | 4.3 | 0.00 | 0.60 | 0.00 | 94 | 1006.7 |
| 20260507115030 | 42 | 344 | 0.0 | 6.1 | 0.00 | 0.60 | 0.00 | 94 | 1006.8 |
| 20260507114545 | 42 | 0 | 0.9 | 6.1 | 0.00 | 0.60 | 0.00 | 94 | 1006.8 |
| 20260507114027 | 42 | 283 | 0.9 | 3.5 | 0.00 | 0.60 | 0.00 | 94 | 1006.8 |
| 20260507113529 | 41 | 265 | 1.7 | 3.5 | 0.00 | 0.60 | 0.00 | 95 | 1006.8 |
| 20260507113036 | 41 | 274 | 0.9 | 5.2 | 0.00 | 0.60 | 0.00 | 95 | 1006.7 |
| 20260507112529 | 41 | 277 | 1.7 | 5.2 | 0.00 | 0.60 | 0.00 | 95 | 1006.7 |
| 20260507112029 | 41 | 288 | 1.7 | 6.1 | 0.00 | 0.60 | 0.00 | 96 | 1006.7 |
| 20260507111542 | 41 | 256 | 0.9 | 6.1 | 0.00 | 0.60 | 0.00 | 96 | 1006.7 |
| 20260507111026 | 41 | 285 | 1.7 | 3.5 | 0.00 | 0.60 | 0.00 | 96 | 1006.7 |
| 20260507110528 | 41 | 265 | 0.9 | 5.2 | 0.00 | 0.60 | 0.00 | 96 | 1006.7 |
| 20260507110046 | 41 | 291 | 1.7 | 5.2 | 0.00 | 0.60 | 0.00 | 96 | 1006.7 |
| 20260507105529 | 40 | 270 | 1.7 | 5.2 | 0.00 | 0.60 | 0.00 | 96 | 1006.6 |
| 20260507105029 | 40 | 294 | 0.9 | 3.5 | 0.00 | 0.60 | 0.00 | 96 | 1006.7 |
| 20260507104540 | 40 | 0 | 0.9 | 5.2 | 0.00 | 0.60 | 0.00 | 96 | 1006.5 |
| 20260507104027 | 40 | 276 | 1.7 | 5.2 | 0.00 | 0.60 | 0.00 | 96 | 1006.6 |
| 20260507103529 | 39 | 0 | 0.9 | 2.6 | 0.00 | 0.60 | 0.00 | 96 | 1006.5 |
| 20260507103049 | 39 | 284 | 0.9 | 2.6 | 0.00 | 0.60 | 0.00 | 96 | 1006.5 |
| 20260507102529 | 39 | 0 | 0.9 | 2.6 | 0.00 | 0.60 | 0.00 | 96 | 1006.5 |
| 20260507102029 | 39 | 284 | 0.9 | 2.6 | 0.00 | 0.60 | 0.00 | 96 | 1006.4 |
| 20260507101546 | 39 | 288 | 0.0 | 3.5 | 0.00 | 0.60 | 0.00 | 96 | 1006.5 |
| 20260507101027 | 39 | 287 | 0.9 | 3.5 | 0.00 | 0.60 | 0.00 | 96 | 1006.5 |
| 20260507100527 | 39 | 257 | 0.9 | 2.6 | 0.00 | 0.60 | 0.00 | 95 | 1006.6 |
| 20260507100044 | 39 | 267 | 0.9 | 2.6 | 0.00 | 0.60 | 0.00 | 95 | 1006.4 |
| 20260507095527 | 39 | 267 | 0.9 | 2.6 | 0.00 | 0.60 | 0.00 | 95 | 1006.4 |
| 20260507095030 | 39 | 300 | 0.0 | 2.6 | 0.00 | 0.60 | 0.00 | 95 | 1006.4 |
| 20260507094553 | 39 | 279 | 0.0 | 2.6 | 0.00 | 0.60 | 0.00 | 95 | 1006.5 |
| 20260507094029 | 39 | 270 | 0.9 | 2.6 | 0.00 | 0.60 | 0.00 | 95 | 1006.5 |
| 20260507093529 | 39 | 257 | 0.9 | 3.5 | 0.00 | 0.60 | 0.00 | 95 | 1006.6 |
| 20260507093040 | 40 | 265 | 0.9 | 3.5 | 0.00 | 0.60 | 0.00 | 95 | 1006.4 |
| 20260507092528 | 40 | 243 | 0.9 | 3.5 | 0.00 | 0.60 | 0.00 | 95 | 1006.6 |
| 20260507092029 | 40 | 270 | 0.9 | 3.5 | 0.00 | 0.60 | 0.00 | 95 | 1006.6 |
| 20260507091535 | 40 | 264 | 0.9 | 3.5 | 0.00 | 0.60 | 0.00 | 95 | 1006.6 |
| 20260507091029 | 40 | 273 | 1.7 | 3.5 | 0.00 | 0.60 | 0.00 | 95 | 1006.8 |
| 20260507090526 | 39 | 257 | 0.0 | 2.6 | 0.00 | 0.60 | 0.00 | 94 | 1006.8 |
| 20260507090044 | 39 | 252 | 0.9 | 2.6 | 0.00 | 0.60 | 0.00 | 94 | 1006.7 |
| 20260507085527 | 40 | 0 | 0.9 | 3.5 | 0.00 | 0.60 | 0.00 | 94 | 1006.4 |
| 20260507085031 | 40 | 0 | 0.9 | 3.5 | 0.00 | 0.60 | 0.00 | 94 | 1006.3 |
| 20260507084541 | 40 | 322 | 0.9 | 3.5 | 0.00 | 0.60 | 0.00 | 94 | 1006.5 |
| 20260507084030 | 40 | 0 | 0.0 | 1.7 | 0.00 | 0.60 | 0.00 | 94 | 1006.5 |
| 20260507083531 | 40 | 0 | 0.0 | 2.6 | 0.00 | 0.60 | 0.00 | 94 | 1006.2 |
| 20260507083038 | 40 | 293 | 0.0 | 2.6 | 0.00 | 0.60 | 0.00 | 94 | 1006.6 |
| 20260507082531 | 40 | 302 | 0.0 | 5.2 | 0.00 | 0.60 | 0.00 | 94 | 1006.4 |
| 20260507082030 | 40 | 296 | 0.0 | 5.2 | 0.00 | 0.60 | 0.00 | 94 | 1006.3 |
| 20260507081542 | 40 | 276 | 0.0 | 5.2 | 0.00 | 0.60 | 0.00 | 94 | 1006.3 |
| 20260507081033 | 40 | 279 | 0.9 | 5.2 | 0.00 | 0.60 | 0.00 | 93 | 1006.3 |
| 20260507080529 | 41 | 311 | 0.0 | 2.6 | 0.00 | 0.60 | 0.00 | 93 | 1006.1 |
| 20260507080039 | 41 | 333 | 0.0 | 3.5 | 0.00 | 0.60 | 0.00 | 93 | 1006.3 |
| 20260507075532 | 41 | 336 | 0.0 | 3.5 | 0.00 | 0.60 | 0.00 | 93 | 1006.5 |
| 20260507075031 | 41 | 277 | 1.7 | 3.5 | 0.00 | 0.60 | 0.00 | 94 | 1006.5 |
| 20260507074548 | 41 | 290 | 0.9 | 3.5 | 0.00 | 0.60 | 0.00 | 94 | 1006.2 |
| 20260507074030 | 41 | 328 | 0.9 | 5.2 | 0.00 | 0.60 | 0.00 | 93 | 1006.2 |
| 20260507073531 | 41 | 338 | 0.9 | 6.1 | 0.00 | 0.60 | 0.00 | 93 | 1006.1 |
| 20260507073048 | 41 | 321 | 1.7 | 6.1 | 0.00 | 0.60 | 0.00 | 93 | 1006.2 |
| 20260507072531 | 41 | 275 | 0.9 | 3.5 | 0.00 | 0.60 | 0.00 | 93 | 1006.4 |
| 20260507072030 | 41 | 259 | 0.9 | 3.5 | 0.00 | 0.60 | 0.00 | 93 | 1006.1 |
| 20260507071542 | 41 | 263 | 0.9 | 3.5 | 0.00 | 0.60 | 0.00 | 93 | 1005.6 |
| 20260507071030 | 41 | 302 | 0.9 | 3.5 | 0.00 | 0.60 | 0.00 | 93 | 1005.8 |
| 20260507070530 | 41 | 305 | 0.9 | 5.2 | 0.00 | 0.60 | 0.00 | 93 | 1005.8 |
| 20260507070049 | 42 | 268 | 1.7 | 7.0 | 0.00 | 0.60 | 0.00 | 93 | 1005.8 |
| 20260507065527 | 42 | 302 | 1.7 | 7.0 | 0.00 | 0.60 | 0.00 | 93 | 1005.6 |
| 20260507065027 | 42 | 305 | 2.6 | 5.2 | 0.00 | 0.60 | 0.00 | 93 | 1005.6 |
| 20260507064546 | 42 | 284 | 1.7 | 5.2 | 0.00 | 0.60 | 0.00 | 93 | 1005.7 |
| 20260507064032 | 42 | 9 | 1.7 | 5.2 | 0.00 | 0.60 | 0.00 | 93 | 1005.8 |
| 20260507063529 | 42 | 340 | 1.7 | 5.2 | 0.00 | 0.60 | 0.00 | 93 | 1005.9 |
| 20260507063039 | 42 | 333 | 1.7 | 4.3 | 0.00 | 0.60 | 0.00 | 93 | 1006.1 |
| 20260507062530 | 42 | 336 | 1.7 | 6.1 | 0.00 | 0.60 | 0.00 | 94 | 1006.0 |
| 20260507062032 | 42 | 296 | 1.7 | 6.1 | 0.00 | 0.60 | 0.00 | 93 | 1005.9 |
| 20260507061545 | 42 | 269 | 1.7 | 6.1 | 0.00 | 0.60 | 0.00 | 94 | 1005.9 |
| 20260507061030 | 42 | 267 | 1.7 | 5.2 | 0.00 | 0.60 | 0.00 | 93 | 1005.9 |
| 20260507060530 | 42 | 342 | 1.7 | 6.1 | 0.00 | 0.60 | 0.00 | 93 | 1005.9 |
| 20260507060042 | 42 | 285 | 1.7 | 6.1 | 0.00 | 0.60 | 0.00 | 93 | 1006.1 |
| 20260507055531 | 42 | 0 | 2.6 | 7.8 | 0.00 | 0.60 | 0.00 | 94 | 1006.1 |
| 20260507055031 | 42 | 272 | 1.7 | 7.8 | 0.00 | 0.60 | 0.00 | 94 | 1006.0 |
| 20260507054540 | 42 | 309 | 3.5 | 8.7 | 0.00 | 0.60 | 0.00 | 94 | 1006.1 |
| 20260507054034 | 42 | 265 | 2.6 | 8.7 | 0.00 | 0.60 | 0.00 | 94 | 1006.3 |
| 20260507053531 | 42 | 339 | 2.6 | 8.7 | 0.00 | 0.60 | 0.00 | 94 | 1006.4 |
| 20260507053040 | 42 | 329 | 2.6 | 8.7 | 0.00 | 0.60 | 0.00 | 94 | 1006.5 |
| 20260507052530 | 43 | 313 | 2.6 | 8.7 | 0.00 | 0.60 | 0.00 | 94 | 1006.3 |
| 20260507052030 | 43 | 333 | 2.6 | 7.0 | 0.00 | 0.60 | 0.00 | 94 | 1006.0 |
| 20260507051540 | 43 | 250 | 2.6 | 7.0 | 0.00 | 0.60 | 0.00 | 94 | 1006.2 |
| 20260507051029 | 43 | 294 | 1.7 | 5.2 | 0.00 | 0.60 | 0.00 | 94 | 1006.2 |
| 20260507050529 | 43 | 331 | 1.7 | 5.2 | 0.00 | 0.60 | 0.00 | 94 | 1005.8 |
| 20260507050039 | 43 | 292 | 2.6 | 6.1 | 0.00 | 0.60 | 0.00 | 94 | 1006.2 |
| 20260507045530 | 43 | 277 | 2.6 | 7.0 | 0.00 | 0.60 | 0.00 | 94 | 1006.2 |
| 20260507045029 | 43 | 258 | 2.6 | 7.0 | 0.00 | 0.60 | 0.00 | 94 | 1006.2 |
| 20260507044548 | 43 | 265 | 1.7 | 7.0 | 0.00 | 0.60 | 0.00 | 94 | 1005.9 |
| 20260507044032 | 43 | 272 | 0.9 | 3.5 | 0.01 | 0.60 | 0.00 | 94 | 1006.0 |
| 20260507043530 | 43 | 313 | 0.9 | 5.2 | 0.01 | 0.60 | 0.00 | 94 | 1006.1 |
| 20260507043042 | 43 | 314 | 1.7 | 5.2 | 0.01 | 0.60 | 0.00 | 94 | 1006.1 |
| 20260507042529 | 43 | 323 | 0.9 | 6.1 | 0.01 | 0.60 | 0.00 | 94 | 1006.2 |
| 20260507042033 | 43 | 246 | 0.9 | 6.1 | 0.01 | 0.60 | 0.00 | 94 | 1006.2 |
| 20260507041545 | 43 | 272 | 0.9 | 7.0 | 0.01 | 0.60 | 0.00 | 94 | 1006.1 |
| 20260507041030 | 43 | 0 | 1.7 | 8.7 | 0.01 | 0.60 | 0.00 | 94 | 1006.0 |
| 20260507040530 | 43 | 311 | 1.7 | 8.7 | 0.01 | 0.60 | 0.00 | 94 | 1006.1 |
| 20260507040051 | 43 | 259 | 2.6 | 9.6 | 0.01 | 0.60 | 0.00 | 93 | 1006.0 |
| 20260507035534 | 43 | 299 | 3.5 | 9.6 | 0.02 | 0.60 | 0.60 | 93 | 1006.0 |
| 20260507035029 | 44 | 287 | 1.7 | 9.6 | 0.02 | 0.60 | 0.60 | 93 | 1006.0 |
| 20260507034543 | 44 | 284 | 4.3 | 9.6 | 0.02 | 0.60 | 0.60 | 93 | 1006.0 |
| 20260507034029 | 44 | 11 | 3.5 | 9.6 | 0.01 | 0.58 | 0.58 | 94 | 1006.2 |
| 20260507033531 | 44 | 306 | 2.6 | 9.6 | 0.01 | 0.58 | 0.58 | 94 | 1006.2 |
| 20260507033058 | 44 | 236 | 2.6 | 9.6 | 0.01 | 0.58 | 0.58 | 93 | 1006.1 |
| 20260507032530 | 44 | 317 | 3.5 | 9.6 | 0.01 | 0.58 | 0.58 | 93 | 1006.0 |
| 20260507032038 | 44 | 302 | 2.6 | 9.6 | 0.02 | 0.58 | 0.58 | 93 | 1006.1 |
| 20260507031553 | 44 | 275 | 2.6 | 13.0 | 0.02 | 0.58 | 0.58 | 94 | 1005.9 |
| 20260507031029 | 44 | 315 | 3.5 | 13.0 | 0.02 | 0.58 | 0.58 | 93 | 1006.0 |
| 20260507030530 | 44 | 360 | 5.2 | 13.0 | 0.02 | 0.58 | 0.58 | 93 | 1006.0 |
| 20260507030101 | 45 | 329 | 3.5 | 7.8 | 0.03 | 0.58 | 0.58 | 94 | 1006.1 |
| 20260507025529 | 45 | 327 | 3.5 | 10.4 | 0.02 | 0.58 | 0.58 | 94 | 1006.1 |
| 20260507025031 | 45 | 278 | 3.5 | 10.4 | 0.02 | 0.58 | 0.58 | 94 | 1006.0 |
| 20260507024555 | 45 | 317 | 3.5 | 10.4 | 0.02 | 0.58 | 0.58 | 94 | 1006.0 |
| 20260507024030 | 46 | 307 | 2.6 | 8.7 | 0.02 | 0.58 | 0.58 | 94 | 1006.0 |
| 20260507023529 | 46 | 287 | 3.5 | 9.6 | 0.03 | 0.58 | 0.58 | 94 | 1005.9 |
| 20260507023033 | 46 | 339 | 4.3 | 9.6 | 0.04 | 0.58 | 0.58 | 94 | 1005.9 |
| 20260507022529 | 46 | 340 | 4.3 | 9.6 | 0.04 | 0.58 | 0.58 | 94 | 1005.9 |
| 20260507022031 | 46 | 253 | 3.5 | 9.6 | 0.04 | 0.57 | 0.57 | 95 | 1006.1 |
| 20260507021550 | 46 | 290 | 2.6 | 8.7 | 0.04 | 0.57 | 0.57 | 95 | 1006.0 |
| 20260507021031 | 47 | 294 | 2.6 | 8.7 | 0.05 | 0.57 | 0.57 | 95 | 1005.8 |
| 20260507020531 | 47 | 319 | 1.7 | 9.6 | 0.05 | 0.57 | 0.57 | 95 | 1006.0 |
| 20260507020053 | 47 | 308 | 4.3 | 9.6 | 0.04 | 0.56 | 0.56 | 94 | 1006.0 |
| 20260507015530 | 47 | 292 | 3.5 | 8.7 | 0.04 | 0.56 | 0.56 | 94 | 1006.0 |
| 20260507015030 | 47 | 260 | 3.5 | 8.7 | 0.04 | 0.56 | 0.56 | 94 | 1005.9 |
| 20260507014549 | 47 | 288 | 3.5 | 8.7 | 0.04 | 0.56 | 0.56 | 94 | 1005.8 |
| 20260507014030 | 47 | 242 | 3.5 | 10.4 | 0.04 | 0.56 | 0.56 | 94 | 1005.7 |
| 20260507013530 | 47 | 267 | 3.5 | 11.3 | 0.04 | 0.55 | 0.55 | 94 | 1005.7 |
| 20260507013039 | 47 | 252 | 4.3 | 13.0 | 0.03 | 0.54 | 0.54 | 94 | 1005.6 |
| 20260507012534 | 48 | 274 | 5.2 | 13.0 | 0.03 | 0.54 | 0.54 | 93 | 1005.7 |
| 20260507012031 | 48 | 259 | 4.3 | 13.0 | 0.02 | 0.52 | 0.52 | 94 | 1005.5 |
| 20260507011547 | 49 | 344 | 3.5 | 11.3 | 0.02 | 0.52 | 0.52 | 94 | 1005.4 |
| 20260507011031 | 49 | 298 | 2.6 | 8.7 | 0.01 | 0.52 | 0.52 | 94 | 1005.4 |
| 20260507010531 | 49 | 301 | 3.5 | 7.8 | 0.01 | 0.52 | 0.52 | 94 | 1005.2 |
| 20260507010045 | 49 | 336 | 2.6 | 8.7 | 0.01 | 0.52 | 0.52 | 93 | 1005.2 |
| 20260507005532 | 50 | 334 | 3.5 | 9.6 | 0.02 | 0.52 | 0.52 | 93 | 1005.3 |
| 20260507005034 | 50 | 266 | 3.5 | 9.6 | 0.03 | 0.52 | 0.52 | 93 | 1005.2 |
| 20260507004539 | 50 | 10 | 3.5 | 7.8 | 0.04 | 0.52 | 0.52 | 94 | 1005.2 |
| 20260507004030 | 51 | 317 | 2.6 | 7.8 | 0.06 | 0.52 | 0.52 | 94 | 1005.0 |
| 20260507003531 | 51 | 280 | 0.9 | 6.1 | 0.08 | 0.51 | 0.51 | 94 | 1005.1 |
| 20260507003039 | 51 | 259 | 1.7 | 7.0 | 0.12 | 0.51 | 0.51 | 94 | 1004.8 |
| 20260507002530 | 51 | 279 | 0.9 | 7.0 | 0.20 | 0.51 | 0.51 | 94 | 1004.7 |
| 20260507002030 | 52 | 253 | 3.5 | 7.0 | 0.21 | 0.51 | 0.51 | 94 | 1004.6 |
| 20260507001543 | 52 | 267 | 2.6 | 6.1 | 0.21 | 0.51 | 0.51 | 94 | 1004.4 |
| 20260507001029 | 52 | 292 | 1.7 | 8.7 | 0.21 | 0.51 | 0.51 | 94 | 1004.4 |
| 20260507000532 | 52 | 256 | 3.5 | 8.7 | 0.21 | 0.51 | 0.51 | 93 | 1004.4 |
| 20260507000044 | 53 | 288 | 1.7 | 11.3 | 0.21 | 0.51 | 0.51 | 93 | 1004.1 |
| 20260506235530 | 53 | 331 | 2.6 | 11.3 | 0.20 | 0.50 | 0.50 | 93 | 1003.9 |
| 20260506235030 | 54 | 0 | 3.5 | 11.3 | 0.20 | 0.49 | 0.49 | 92 | 1003.9 |
| 20260506234604 | 55 | 297 | 7.0 | 11.3 | 0.19 | 0.48 | 0.48 | 92 | 1003.7 |
| 20260506234034 | 56 | 307 | 3.5 | 10.4 | 0.17 | 0.46 | 0.46 | 95 | 1003.7 |
| 20260506233531 | 57 | 288 | 0.9 | 5.2 | 0.14 | 0.43 | 0.43 | 95 | 1003.6 |
| 20260506233047 | 57 | 273 | 1.7 | 3.5 | 0.08 | 0.37 | 0.37 | 95 | 1003.5 |
| 20260506232532 | 57 | 238 | 1.7 | 3.5 | 0.02 | 0.31 | 0.31 | 94 | 1003.4 |
| 20260506232030 | 57 | 208 | 0.9 | 3.5 | 0.01 | 0.30 | 0.30 | 94 | 1003.3 |
| 20260506231552 | 57 | 232 | 0.9 | 5.2 | 0.02 | 0.30 | 0.30 | 94 | 1003.2 |
| 20260506231029 | 57 | 231 | 1.7 | 7.0 | 0.02 | 0.30 | 0.30 | 94 | 1003.3 |
| 20260506230533 | 57 | 187 | 2.6 | 7.0 | 0.02 | 0.30 | 0.30 | 94 | 1003.3 |
| 20260506230038 | 57 | 279 | 2.6 | 7.0 | 0.02 | 0.30 | 0.30 | 94 | 1003.4 |
| 20260506225530 | 57 | 205 | 2.6 | 8.7 | 0.02 | 0.30 | 0.30 | 93 | 1003.5 |
| 20260506225032 | 58 | 247 | 3.5 | 8.7 | 0.01 | 0.29 | 0.29 | 93 | 1003.4 |
| 20260506224541 | 58 | 223 | 0.9 | 1.7 | 0.01 | 0.29 | 0.29 | 94 | 1003.3 |
| 20260506224031 | 58 | 223 | 0.0 | 1.7 | 0.01 | 0.29 | 0.29 | 94 | 1003.3 |
| 20260506223532 | 58 | 0 | 0.0 | 2.6 | 0.01 | 0.29 | 0.29 | 93 | 1003.3 |
| 20260506223042 | 58 | 223 | 0.0 | 3.5 | 0.01 | 0.29 | 0.29 | 93 | 1003.4 |
| 20260506222530 | 58 | 217 | 0.9 | 4.3 | 0.01 | 0.29 | 0.29 | 93 | 1003.3 |
| 20260506222030 | 58 | 188 | 0.9 | 5.2 | 0.01 | 0.29 | 0.29 | 92 | 1003.3 |
| 20260506221539 | 58 | 178 | 0.9 | 7.0 | 0.00 | 0.28 | 0.28 | 92 | 1003.3 |
| 20260506221030 | 58 | 222 | 2.6 | 7.0 | 0.00 | 0.28 | 0.28 | 92 | 1003.3 |
| 20260506220530 | 58 | 178 | 2.6 | 7.0 | 0.00 | 0.28 | 0.28 | 92 | 1003.2 |
| 20260506220039 | 58 | 190 | 2.6 | 7.0 | 0.00 | 0.28 | 0.28 | 92 | 1003.2 |
| 20260506215530 | 59 | 177 | 2.6 | 7.8 | 0.00 | 0.29 | 0.28 | 92 | 1003.2 |
| 20260506215030 | 59 | 189 | 3.5 | 8.7 | 0.00 | 0.29 | 0.28 | 92 | 1003.1 |
| 20260506214545 | 59 | 201 | 3.5 | 8.7 | 0.00 | 0.29 | 0.28 | 92 | 1003.1 |
| 20260506214034 | 59 | 167 | 3.5 | 7.8 | 0.00 | 0.29 | 0.28 | 91 | 1003.2 |
| 20260506213533 | 59 | 143 | 3.5 | 7.0 | 0.00 | 0.29 | 0.28 | 91 | 1003.2 |
| 20260506213043 | 59 | 178 | 3.5 | 11.3 | 0.00 | 0.29 | 0.28 | 91 | 1003.3 |
| 20260506212530 | 59 | 239 | 3.5 | 11.3 | 0.00 | 0.29 | 0.28 | 90 | 1003.2 |
| 20260506212031 | 59 | 194 | 5.2 | 11.3 | 0.00 | 0.29 | 0.28 | 90 | 1003.4 |
| 20260506211541 | 59 | 200 | 4.3 | 10.4 | 0.00 | 0.29 | 0.28 | 91 | 1003.4 |
| 20260506211030 | 59 | 175 | 4.3 | 11.3 | 0.00 | 0.29 | 0.28 | 91 | 1003.4 |
| 20260506210531 | 59 | 218 | 3.5 | 12.2 | 0.00 | 0.29 | 0.28 | 91 | 1003.4 |
| 20260506210040 | 59 | 207 | 4.3 | 12.2 | 0.00 | 0.29 | 0.28 | 91 | 1003.4 |
| 20260506205533 | 59 | 165 | 6.1 | 12.2 | 0.00 | 0.29 | 0.28 | 91 | 1003.4 |
| 20260506205030 | 58 | 215 | 6.1 | 12.2 | 0.00 | 0.29 | 0.28 | 92 | 1003.3 |
| 20260506204539 | 59 | 175 | 4.3 | 12.2 | 0.00 | 0.29 | 0.28 | 92 | 1003.4 |
| 20260506204031 | 58 | 181 | 7.0 | 11.3 | 0.00 | 0.29 | 0.28 | 92 | 1003.5 |
| 20260506203532 | 59 | 190 | 3.5 | 15.6 | 0.00 | 0.29 | 0.28 | 93 | 1003.6 |
| 20260506203039 | 58 | 183 | 6.1 | 15.6 | 0.00 | 0.29 | 0.28 | 92 | 1003.5 |
| 20260506202530 | 58 | 205 | 3.5 | 7.0 | 0.00 | 0.29 | 0.28 | 93 | 1003.5 |
| 20260506202030 | 58 | 142 | 2.6 | 8.7 | 0.00 | 0.29 | 0.28 | 94 | 1003.5 |
| 20260506201541 | 58 | 177 | 5.2 | 8.7 | 0.01 | 0.29 | 0.28 | 94 | 1003.6 |
| 20260506201029 | 58 | 170 | 2.6 | 10.4 | 0.03 | 0.29 | 0.28 | 94 | 1003.7 |
| 20260506200530 | 58 | 180 | 4.3 | 10.4 | 0.05 | 0.29 | 0.28 | 94 | 1003.7 |
| 20260506200040 | 58 | 148 | 4.3 | 8.7 | 0.06 | 0.29 | 0.28 | 94 | 1003.7 |
| 20260506195533 | 58 | 119 | 2.6 | 7.8 | 0.07 | 0.29 | 0.28 | 94 | 1003.7 |
| 20260506195032 | 58 | 171 | 2.6 | 7.8 | 0.07 | 0.29 | 0.28 | 94 | 1003.9 |
| 20260506194539 | 58 | 159 | 2.6 | 6.1 | 0.08 | 0.29 | 0.28 | 94 | 1004.0 |
| 20260506194030 | 58 | 138 | 2.6 | 6.1 | 0.09 | 0.29 | 0.28 | 94 | 1004.0 |
| 20260506193529 | 58 | 147 | 1.7 | 6.1 | 0.10 | 0.29 | 0.28 | 94 | 1004.2 |
| 20260506193037 | 58 | 204 | 1.7 | 4.3 | 0.10 | 0.29 | 0.28 | 94 | 1004.3 |
| 20260506192529 | 58 | 160 | 1.7 | 5.2 | 0.10 | 0.29 | 0.28 | 94 | 1004.2 |
| 20260506192034 | 58 | 154 | 0.9 | 5.2 | 0.10 | 0.28 | 0.27 | 94 | 1004.3 |
| 20260506191535 | 58 | 248 | 1.7 | 4.3 | 0.10 | 0.28 | 0.27 | 94 | 1004.5 |
| 20260506191030 | 58 | 206 | 0.0 | 4.3 | 0.09 | 0.26 | 0.25 | 94 | 1004.5 |
| 20260506190530 | 58 | 0 | 0.9 | 4.3 | 0.08 | 0.24 | 0.23 | 94 | 1004.4 |
| 20260506190043 | 58 | 148 | 1.7 | 6.1 | 0.07 | 0.23 | 0.22 | 94 | 1004.5 |
| 20260506185530 | 58 | 195 | 2.6 | 6.1 | 0.07 | 0.22 | 0.21 | 94 | 1004.6 |
| 20260506185029 | 58 | 178 | 2.6 | 7.0 | 0.08 | 0.22 | 0.21 | 93 | 1004.7 |
| 20260506184546 | 58 | 174 | 2.6 | 7.0 | 0.08 | 0.21 | 0.20 | 93 | 1004.8 |
| 20260506184030 | 58 | 219 | 2.6 | 7.0 | 0.09 | 0.20 | 0.19 | 93 | 1004.8 |
| 20260506183530 | 58 | 140 | 3.5 | 7.0 | 0.09 | 0.19 | 0.18 | 93 | 1004.8 |
| 20260506183039 | 59 | 173 | 2.6 | 7.8 | 0.10 | 0.19 | 0.18 | 93 | 1004.8 |
| 20260506182529 | 59 | 167 | 0.9 | 8.7 | 0.11 | 0.19 | 0.18 | 93 | 1004.6 |
| 20260506182029 | 59 | 165 | 3.5 | 8.7 | 0.11 | 0.18 | 0.17 | 93 | 1005.2 |
| 20260506181539 | 59 | 157 | 3.5 | 11.3 | 0.12 | 0.18 | 0.17 | 92 | 1005.2 |
| 20260506181029 | 59 | 177 | 5.2 | 11.3 | 0.12 | 0.17 | 0.16 | 92 | 1005.4 |
| 20260506180529 | 59 | 218 | 1.7 | 8.7 | 0.11 | 0.16 | 0.15 | 93 | 1005.4 |
| 20260506180037 | 58 | 188 | 4.3 | 8.7 | 0.12 | 0.16 | 0.15 | 92 | 1005.4 |
| 20260506175528 | 59 | 209 | 3.5 | 8.7 | 0.11 | 0.15 | 0.14 | 93 | 1005.7 |
| 20260506175028 | 59 | 201 | 1.7 | 8.7 | 0.11 | 0.14 | 0.13 | 92 | 1005.8 |
| 20260506174538 | 59 | 190 | 1.7 | 7.8 | 0.11 | 0.13 | 0.12 | 93 | 1005.7 |
| 20260506174034 | 59 | 182 | 3.5 | 7.8 | 0.09 | 0.11 | 0.10 | 92 | 1005.8 |
| 20260506173530 | 59 | 169 | 3.5 | 7.0 | 0.09 | 0.10 | 0.09 | 92 | 1005.8 |
| 20260506173117 | 59 | 164 | 2.6 | 7.0 | 0.08 | 0.09 | 0.08 | 92 | 1005.9 |
| 20260506172534 | 59 | 134 | 0.9 | 4.3 | 0.07 | 0.08 | 0.07 | 92 | 1005.9 |
| 20260506172030 | 59 | 194 | 1.7 | 4.3 | 0.06 | 0.07 | 0.06 | 91 | 1005.9 |
| 20260506171545 | 59 | 184 | 0.9 | 3.5 | 0.05 | 0.06 | 0.05 | 91 | 1005.8 |
| 20260506171033 | 59 | 162 | 0.9 | 3.5 | 0.04 | 0.05 | 0.04 | 90 | 1005.8 |
| 20260506170529 | 59 | 196 | 0.9 | 3.5 | 0.04 | 0.05 | 0.04 | 90 | 1005.9 |
| 20260506170050 | 60 | 158 | 0.9 | 6.1 | 0.03 | 0.04 | 0.03 | 89 | 1005.9 |
| 20260506165529 | 60 | 188 | 0.9 | 7.0 | 0.02 | 0.03 | 0.02 | 89 | 1005.8 |
| 20260506165030 | 60 | 165 | 0.9 | 7.0 | 0.02 | 0.03 | 0.02 | 87 | 1005.8 |
| 20260506164541 | 60 | 203 | 1.7 | 7.0 | 0.01 | 0.02 | 0.01 | 86 | 1005.9 |
| 20260506164030 | 60 | 186 | 1.7 | 7.8 | 0.01 | 0.02 | 0.01 | 85 | 1006.0 |
| 20260506163535 | 60 | 207 | 2.6 | 9.6 | 0.00 | 0.01 | 0.00 | 83 | 1006.1 |
| 20260506163042 | 61 | 211 | 4.3 | 9.6 | 0.00 | 0.01 | 0.00 | 82 | 1006.1 |
| 20260506162530 | 61 | 192 | 2.6 | 10.4 | 0.00 | 0.01 | 0.00 | 81 | 1006.0 |
| 20260506162033 | 61 | 231 | 3.5 | 10.4 | 0.00 | 0.01 | 0.00 | 80 | 1006.0 |
| 20260506161540 | 61 | 214 | 3.5 | 9.6 | 0.00 | 0.01 | 0.00 | 80 | 1006.2 |
| 20260506161030 | 61 | 189 | 3.5 | 16.5 | 0.00 | 0.01 | 0.00 | 79 | 1006.2 |
| 20260506160530 | 62 | 202 | 7.0 | 16.5 | 0.00 | 0.01 | 0.00 | 79 | 1006.4 |
| 20260506160040 | 62 | 182 | 4.3 | 9.6 | 0.00 | 0.01 | 0.00 | 79 | 1006.4 |
| 20260506155530 | 62 | 177 | 3.5 | 11.3 | 0.00 | 0.01 | 0.00 | 79 | 1006.3 |
| 20260506155032 | 62 | 201 | 5.2 | 11.3 | 0.00 | 0.01 | 0.00 | 78 | 1006.4 |
| 20260506154553 | 61 | 225 | 3.5 | 8.7 | 0.00 | 0.01 | 0.00 | 80 | 1006.7 |
| 20260506154031 | 61 | 232 | 3.5 | 12.2 | 0.00 | 0.01 | 0.00 | 80 | 1006.7 |
| 20260506153533 | 61 | 261 | 5.2 | 12.2 | 0.00 | 0.01 | 0.00 | 80 | 1006.8 |
| 20260506153047 | 61 | 216 | 2.6 | 11.3 | 0.00 | 0.01 | 0.00 | 80 | 1007.1 |
| 20260506152532 | 61 | 209 | 4.3 | 11.3 | 0.00 | 0.01 | 0.00 | 78 | 1007.2 |
| 20260506152032 | 61 | 258 | 6.1 | 11.3 | 0.00 | 0.01 | 0.00 | 78 | 1007.3 |
| 20260506151551 | 61 | 269 | 2.6 | 7.8 | 0.00 | 0.01 | 0.00 | 79 | 1007.2 |
| 20260506151030 | 61 | 271 | 3.5 | 7.8 | 0.00 | 0.01 | 0.00 | 77 | 1007.3 |
| 20260506150533 | 62 | 261 | 2.6 | 7.0 | 0.00 | 0.01 | 0.00 | 78 | 1007.3 |
| 20260506150041 | 62 | 223 | 1.7 | 5.2 | 0.00 | 0.01 | 0.00 | 77 | 1007.1 |
| 20260506145531 | 62 | 228 | 1.7 | 5.2 | 0.00 | 0.01 | 0.00 | 77 | 1007.0 |
| 20260506145032 | 62 | 231 | 1.7 | 7.8 | 0.00 | 0.01 | 0.00 | 79 | 1007.0 |
| 20260506144542 | 62 | 0 | 1.7 | 8.7 | 0.00 | 0.01 | 0.00 | 78 | 1007.0 |
| 20260506144030 | 61 | 179 | 3.5 | 8.7 | 0.00 | 0.01 | 0.00 | 77 | 1006.9 |
| 20260506143530 | 61 | 257 | 3.5 | 10.4 | 0.00 | 0.01 | 0.00 | 78 | 1006.8 |
| 20260506143040 | 61 | 207 | 2.6 | 10.4 | 0.00 | 0.01 | 0.00 | 77 | 1006.9 |
| 20260506142530 | 61 | 215 | 3.5 | 8.7 | 0.00 | 0.01 | 0.00 | 78 | 1007.0 |
| 20260506142029 | 61 | 261 | 3.5 | 9.6 | 0.00 | 0.01 | 0.00 | 77 | 1006.9 |
| 20260506141542 | 61 | 247 | 4.3 | 10.4 | 0.00 | 0.01 | 0.00 | 78 | 1006.9 |
| 20260506141030 | 61 | 237 | 3.5 | 10.4 | 0.00 | 0.01 | 0.00 | 77 | 1007.1 |
| 20260506140530 | 61 | 278 | 2.6 | 7.0 | 0.00 | 0.01 | 0.00 | 78 | 1007.1 |
| 20260506140042 | 61 | 245 | 1.7 | 7.0 | 0.00 | 0.01 | 0.00 | 81 | 1007.0 |
| 20260506135530 | 60 | 258 | 2.6 | 7.0 | 0.00 | 0.01 | 0.00 | 80 | 1007.1 |
| 20260506135029 | 60 | 299 | 1.7 | 7.0 | 0.00 | 0.01 | 0.00 | 81 | 1007.0 |
| 20260506134541 | 60 | 307 | 1.7 | 6.1 | 0.00 | 0.01 | 0.00 | 81 | 1007.0 |
| 20260506134029 | 60 | 265 | 2.6 | 6.1 | 0.00 | 0.01 | 0.00 | 81 | 1007.0 |
| 20260506133529 | 59 | 236 | 1.7 | 6.1 | 0.00 | 0.01 | 0.00 | 81 | 1007.0 |
| 20260506133039 | 59 | 288 | 0.9 | 5.2 | 0.00 | 0.01 | 0.00 | 82 | 1007.1 |
| 20260506132533 | 59 | 257 | 1.7 | 6.1 | 0.00 | 0.01 | 0.00 | 82 | 1007.2 |
| 20260506132032 | 59 | 232 | 2.6 | 6.1 | 0.00 | 0.01 | 0.00 | 82 | 1007.3 |
| 20260506131550 | 58 | 220 | 1.7 | 6.1 | 0.00 | 0.01 | 0.00 | 82 | 1007.4 |
| 20260506131030 | 58 | 278 | 1.7 | 6.1 | 0.00 | 0.01 | 0.00 | 82 | 1007.6 |